Flag for U.S.A. Weather past 2 weeks in Glendale, Arizona, U.S.A.

Now
35 °F

Clear.


Feels Like: 35 °F
Forecast: 31 / 56 °F
Wind: No wind

Location: Phoenix-Deer Valley Municipal Airport

Current Time: Dec 28, 2014 at 6:54:20 AM

Latest Report: Dec 28, 2014 at 5:53 AM


Visibility: 10 mi

Pressure: 30.24 "Hg

Humidity: 52%

Dew point: 19 °F

Location of GlendaleLocation

Historic Weather in Glendale — Graph

°F

Glendale temperature yesterday

Maximum temperature yesterday: 57 °F (at 1:53 PM)
Minimum temperature yesterday: 32 °F (at 7:53 AM)
Average temperature yesterday: 45 °F

Past Weeks' High & Low Weather Summary

 TemperatureHumidityPressure
High67 °F (Dec 23, 3:53 PM)100% (Dec 13, 4:03 AM)30.29 "Hg (Dec 13, 4:03 AM)
Low32 °F (Dec 26, 6:53 AM)10% (Dec 23, 1:53 PM)29.66 "Hg (Dec 25, 3:53 PM)
Average51 °F58%30.03 "Hg
* Reported Dec 13 4:03 AM — Dec 28 4:53 AM, Glendale, Weather by CustomWeather, © 2014

Note: Actual official high and low records may vary slightly from our data, if they occured in-between our weather recording intervals... More about our weather records

Advertising

Glendale weather history for previous 24 hours

 ConditionsComfort  
Time TempWeatherWind HumidityBarometerVisibility
4:53 AM
Dec 28
35 °FClear.No wind52%30.23 "Hg10 mi
3:53 AM38 °FClear.No wind46%30.25 "Hg10 mi
2:53 AM35 °FClear.No wind54%30.26 "Hg10 mi
1:53 AM39 °FClear.No wind45%30.24 "Hg10 mi
12:53 AM40 °FClear.8 mph43%30.25 "Hg10 mi
11:53 PM
Dec 27
42 °FClear.7 mph41%30.27 "Hg10 mi
10:53 PM41 °FClear.5 mph45%30.29 "Hg10 mi
9:53 PM42 °FClear.No wind39%30.28 "Hg10 mi
8:53 PM45 °FClear.3 mph34%30.27 "Hg10 mi
7:53 PM46 °FClear.7 mph34%30.28 "Hg10 mi
6:53 PM48 °FClear.7 mph29%30.26 "Hg10 mi
5:53 PM51 °FClear.5 mph24%30.24 "Hg10 mi
4:53 PM56 °FSunny.6 mph16%30.22 "Hg10 mi
3:53 PM57 °FSunny.6 mph15%30.22 "Hg10 mi
2:53 PM57 °FSunny.6 mph15%30.21 "Hg10 mi
1:53 PM57 °FSunny.5 mph17%30.21 "Hg10 mi
12:53 PM55 °FSunny.6 mph19%30.22 "Hg10 mi
11:53 AM53 °FSunny.3 mph22%30.25 "Hg10 mi
10:53 AM50 °FSunny.No wind27%30.27 "Hg10 mi
9:53 AM46 °FSunny.3 mph35%30.28 "Hg10 mi
8:53 AM40 °FSunny.7 mph45%30.26 "Hg10 mi
7:53 AM32 °FSunny.No wind66%30.23 "Hg10 mi
6:53 AM33 °FClear.No wind63%30.20 "Hg10 mi
Weather by CustomWeather, © 2014

See weather overviewHow to use our weather pages